Greenland, New Hampshire, United States (03840)
Lat: 43.04N, Lon: 70.83W
Wx Zone: NHZ014
Local Info
Past Weather Observations for Monday, February 8, 2016

NOTE: This archive is for the closest National Weather Service station to Greenland. Information may differ from the station used for current weather conditions.

Click here for Long-term Archive

Time Weather Temperature Dewpoint Humidity Pressure Winds Precip Visibility
23:58
Overcast
Light Snow
19°F / -7°C 16°F / -9°C 86% 29.77 in
(1008 mb)
N 6.9 mph
(N 11 kph)
0.01 in
(0.25 mm)
1 1/2SM
23:28
Overcast
Light Snow
19°F / -7°C 16°F / -9°C 86% 29.77 in
(1008 mb)
N 11.5 mph
(N 19 kph)
- 1 1/2SM
22:58
Overcast
Light Snow
19°F / -7°C 16°F / -9°C 86% 29.8 in
(1009 mb)
N 8.1 mph
(N 13 kph)
0.02 in
(0.51 mm)
1 1/4SM
21:58
Overcast
Light Snow
19°F / -7°C 16°F / -9°C 86% 29.8 in
(1009 mb)
N 10.4 mph
(N 17 kph)
0.02 in
(0.51 mm)
1 1/4SM
21:28
Overcast
Light Snow
19°F / -7°C 16°F / -9°C 86% 29.8 in
(1009 mb)
N 13.8 mph
(N 22 kph)
- 1SM
20:58
Overcast
Light Snow
19°F / -7°C 16°F / -9°C 86% 29.8 in
(1009 mb)
N 15 mph
(N 24 kph)
0.02 in
(0.51 mm)
1SM
20:28
Overcast
Light Snow
19°F / -7°C 16°F / -9°C 86% 29.8 in
(1009 mb)
N 13.8 mph
(N 22 kph)
- 1SM
19:58
Overcast
Light Snow
19°F / -7°C 16°F / -9°C 86% 29.8 in
(1009 mb)
N 15 mph
(N 24 kph)
0.02 in
(0.51 mm)
1 1/4SM
18:58
Overcast
Light Snow
19°F / -7°C 14°F / -10°C 79% 29.77 in
(1008 mb)
N 15 mph
(N 24 kph)
0.02 in
(0.51 mm)
1 1/2SM
17:58
Overcast
Light Snow
19°F / -7°C 14°F / -10°C 79% 29.77 in
(1008 mb)
N 17.3 mph
(N 28 kph)
0.01 in
(0.25 mm)
1 1/2SM
17:31
Overcast
Light Snow
19°F / -7°C 14°F / -10°C 79% 29.77 in
(1008 mb)
N 17.3 mph
(N 28 kph)
- 1 1/2SM
16:58
Overcast
Light Snow
19°F / -7°C 14°F / -10°C 79% 29.74 in
(1007 mb)
N 15 mph
(N 24 kph)
0.00 in
(0.00 mm)
5SM
16:43
Overcast
Light Snow
19°F / -7°C 14°F / -10°C 79% 29.74 in
(1007 mb)
N 13.8 mph
(N 22 kph)
- 4SM
16:21
Overcast
Light Snow
19°F / -7°C 14°F / -10°C 79% 29.74 in
(1007 mb)
N 17.3 mph
(N 28 kph)
- 1 1/2SM
15:58
Overcast
Light Snow
19°F / -7°C 16°F / -9°C 86% 29.74 in
(1007 mb)
N 13.8 mph
(N 22 kph)
0.03 in
(0.76 mm)
3/4SM
14:58
Overcast
Light Snow
19°F / -7°C 14°F / -10°C 79% 29.74 in
(1007 mb)
N 16.1 mph
(N 26 kph)
0.01 in
(0.25 mm)
3/4SM
13:58
Overcast
Light Snow
19°F / -7°C 14°F / -10°C 79% 29.77 in
(1008 mb)
N 13.8 mph
(N 22 kph)
0.02 in
(0.51 mm)
3/4SM
12:58
Overcast
Light Snow
18°F / -8°C 14°F / -10°C 86% 29.8 in
(1009 mb)
N 10.4 mph
(N 17 kph)
0.02 in
(0.51 mm)
3/4SM
12:43
Obscured
Light Snow
18°F / -8°C 12°F / -11°C 79% 29.8 in
(1009 mb)
N 11.5 mph
(N 19 kph)
- 3/4SM
12:32
Obscured
Light Snow
18°F / -8°C 12°F / -11°C 79% 29.8 in
(1009 mb)
N 12.7 mph
(N 20 kph)
- 3/4SM
11:58
Overcast
Light Snow
18°F / -8°C 10°F / -12°C 73% 29.86 in
(1011 mb)
N 12.7 mph
(N 20 kph)
0.01 in
(0.25 mm)
3/4SM
11:43
Overcast
Light Snow
19°F / -7°C 9°F / -13°C 63% 29.89 in
(1012 mb)
N 12.7 mph
(N 20 kph)
- 1 1/4SM
11:28
Overcast
Light Snow
19°F / -7°C 9°F / -13°C 63% 29.89 in
(1012 mb)
N 11.5 mph
(N 19 kph)
- 2SM
10:58
Overcast
Light Snow
19°F / -7°C 3°F / -16°C 49% 29.89 in
(1012 mb)
NNE 16.1 mph
(NNE 26 kph)
0.00 in
(0.00 mm)
1 1/2SM
10:44
Overcast
Light Snow
19°F / -7°C 3°F / -16°C 49% 29.92 in
(1013 mb)
NNE 12.7 mph
(NNE 20 kph)
- 10SM
09:58
Overcast
18°F / -8°C 1°F / -17°C 49% 29.92 in
(1013 mb)
NNE 16.1 mph
(NNE 26 kph)
- 10SM
08:58
Overcast
18°F / -8°C °F / -18°C 45% 29.92 in
(1013 mb)
N 17.3 mph
(N 28 kph)
- 10SM
08:34
Overcast
18°F / -8°C -2°F / -19°C 41% 29.95 in
(1014 mb)
NE 20.7 mph
(NE 33 kph)
- 10SM
07:58
Overcast
19°F / -7°C -2°F / -19°C 38% 29.95 in
(1014 mb)
NNE 15 mph
(NNE 24 kph)
- 10SM
06:58
Overcast
19°F / -7°C °F / -18°C 42% 29.95 in
(1014 mb)
NNE 15 mph
(NNE 24 kph)
- 10SM
05:58
Overcast
21°F / -6°C 1°F / -17°C 42% 29.95 in
(1014 mb)
NNE 19.6 mph
(NNE 32 kph)
- 10SM
04:58
Mostly Cloudy
23°F / -5°C 5°F / -15°C 46% 29.98 in
(1015 mb)
NNE 13.8 mph
(NNE 22 kph)
- 10SM
03:58
Partly Cloudy
25°F / -4°C 9°F / -13°C 50% 29.98 in
(1015 mb)
NE 18.4 mph
(NE 30 kph)
- 10SM
02:58
Partly Cloudy
28°F / -2°C 14°F / -10°C 55% 30.01 in
(1016 mb)
NNE 16.1 mph
(NNE 26 kph)
- 10SM
01:58
Mostly Cloudy
32°F / 0°C 19°F / -7°C 60% 30.04 in
(1017 mb)
NE 13.8 mph
(NE 22 kph)
- 10SM
00:58
Mostly Cloudy
34°F / 1°C 21°F / -6°C 60% 30.06 in
(1018 mb)
NE 15 mph
(NE 24 kph)
- 10SM
00:28
Overcast
36°F / 2°C 25°F / -4°C 65% 30.06 in
(1018 mb)
NE 15 mph
(NE 24 kph)
- 10SM
Time Weather Temperature Dewpoint Humidity Pressure Winds Precip Visibility


Weather for websites

WeatherForYou.com, LLC is not responsible for any damages or problems caused by this service. Current weather conditions are obtained from the closest station including government and personal stations which may have varying degrees of accuracy. Weather forecasts are derived from the NOAA NDFD. Like all things, this site belongs to Jesus Christ... He just trusts us to maintain it. If you have any questions or comments email webmaster@weatherforyou.com

Copyright © 2016, WeatherForYou.com LLC. All rights reserved.